ONEWEB-0178

Last updated on Sun Apr 25 2021 00:02:03 GMT+0000 (Coordinated Universal Time)

1 48075U 21025AK 21114.58336806 -.01070009 00000-0 -37278-1 0 9999 2 48075 87.4238 339.2951 0013205 133.9951 30.7220 15.32344482 1766

Satellite not in orbit